(4) Vesta
ephemeris date magn radius delta ra dec elong phase
Today18 Sep 20257.92.152 AU2.348 AU15h58m-18°32'66.4°25.3°
Opposition12 Oct 20266.52.467 AU1.482 AU01h30m-03°16'168.1°4.8°
(4) Vesta - 2025-09-18
astro.vanbuitenen.nl


 
-1 year
-1 month
-1 day
Now
+1 day
+1 month
+1 year

The interactive orbit chart above shows the body's path through the solar system and its position at the given date. Green and blue lines are shown perpendicular to the ecliptic plane: Green if the path is above the ecliptic plane, blue if it is below. (Left-click and drag to rotate the view; Right-click and drag to move the view; Use scroll wheel to zoom in our out.)

The orbital elements of Vesta are:

            e (Eccentricity)                : 0.0901071
            a (Semimajor axis)              : 2.3613975
            i (Inclination)                 : 7.14395
            Ω (Longitude of ascending node) : 103.70294
            ω (Argument of perihelion)      : 151.58337
            M (Mean anomaly)                : 332.45068
            Epoch                           : 2025 May 05

            L (Longitude of perihelion)     : 75.47280
            B (Latitude of perihelion)      : 3.39284
            P (Orbital period in years)     : 3.63            
        

The light curve chart below shows the estimated development of the minor planet's magnitude.


The all-sky chart below shows the path of the minor planet over the same period as the light curve. The current position is marked yellow.





The following chart shows the path of the minor planet in the next few days. The field of view is optimized for (~10x50) binoculars and finderscopes. A more printer-friendly version of the same chart can be found below.




Ephemerides:
Date       Time       RA (2000)    DEC (2000)    delta   radius  elong  phase   PA    magn
2025-09-18 00:00 UT   15 58 32.7   -18 32 42     2.348    2.152   66.4   25.3   101    7.9 
2025-09-18 13:22 UT   15 59 32.9   -18 37 07     2.354    2.152   66.1   25.3   101    7.9 
2025-09-19 00:00 UT   16 00 20.9   -18 40 37     2.358    2.152   65.8   25.2   101    7.9 
2025-09-20 00:00 UT   16 02 09.8   -18 48 27     2.369    2.152   65.3   25.1   100    7.9 
2025-09-21 00:00 UT   16 03 59.3   -18 56 13     2.379    2.153   64.8   25.0   100    7.9 
2025-09-22 00:00 UT   16 05 49.4   -19 03 55     2.390    2.153   64.3   24.8   100    8.0 
2025-09-23 00:00 UT   16 07 40.2   -19 11 32     2.400    2.153   63.7   24.7   100    8.0 
2025-09-24 00:00 UT   16 09 31.7   -19 19 04     2.411    2.153   63.2   24.6   100    8.0 
2025-09-25 00:00 UT   16 11 23.7   -19 26 32     2.421    2.154   62.7   24.4   100    8.0 
2025-09-26 00:00 UT   16 13 16.4   -19 33 55     2.431    2.154   62.2   24.3    99    8.0 
2025-09-27 00:00 UT   16 15 09.7   -19 41 13     2.441    2.154   61.6   24.2    99    8.0 
2025-09-28 00:00 UT   16 17 03.5   -19 48 27     2.452    2.154   61.1   24.0    99    8.0 
2025-09-29 00:00 UT   16 18 58.0   -19 55 35     2.462    2.155   60.6   23.9    99    8.0 
2025-09-30 00:00 UT   16 20 53.1   -20 02 38     2.472    2.155   60.1   23.8    99    8.0 
2025-10-01 00:00 UT   16 22 48.7   -20 09 36     2.482    2.155   59.6   23.6    99    8.0 
2025-10-02 00:00 UT   16 24 44.9   -20 16 29     2.492    2.155   59.0   23.5    98    8.0 
2025-10-03 00:00 UT   16 26 41.6   -20 23 16     2.502    2.156   58.5   23.3    98    8.0 
2025-10-04 00:00 UT   16 28 38.9   -20 29 58     2.512    2.156   58.0   23.2    98    8.0 
2025-10-05 00:00 UT   16 30 36.7   -20 36 34     2.522    2.156   57.5   23.0    98    8.0 
2025-10-06 00:00 UT   16 32 35.0   -20 43 05     2.532    2.157   57.0   22.9    98    8.0 


    Terminology:
            
    delta:  distance between minor planet and earth in AU
    radius: distance between minor planet and sun in AU
    magn:   magnitude (brightness) estimate    
    ra:     right ascension in hours (24h = 360deg)
    dec:    declination in degrees
    elong:  elongation in degrees (angle sun-earth-minor planet)    
    phase:  phase angle in degrees (angle sun-minor planet-earth)        
    AU:     Astronomical Unit (mean distance between earth and sun: 149597870.7 km
    

Orbital elements provided by the MPC (Minor Planet Center).
Calculations by a modified version of AAPlus, a C# implementation of the AA+ project by PJ Naughter from the algorithms presented in the book "Astronomical Algorithms" by Jean Meeus.
NGC2000 dso catalog and star labels from VizieR as provided by the Strasbourg astronomical Data Center.
Tycho2 catalog from the ESO archive.